Hourly Data Report for October 30, 2015

All times are specified in Local Standard Time (LST). Add 1 hour to adjust for Daylight Saving Time where and when it is observed.

TORONTO INTL A
ONTARIO

43°40'36.000" N
79°37'50.000" W
173.40 m
6158731
71624
YYZ

Download Data

Hourly Data (October 2015)
Hourly Data Report for October 30, 2015
Temp Definition
°C
Dew Point Temp Definition
°C
Rel Hum Definition
%
Wind Dir Definition
10's deg

Wind Spd Definition
km/h
Visibility Definition
km
Stn Press Definition
kPa
Hmdx Definition


Wind Chill Definition


Weather Definition


TIME
00:00 Legend Double Dagger 7.7 3.6 75 29 35 24.1 98.58     LegendNANA
01:00 Legend Double Dagger 7.1 2.6 73 31 39 24.1 98.71     Mainly Clear
02:00 Legend Double Dagger 5.8 1.7 75 31 31 24.1 98.84     LegendNANA
03:00 Legend Double Dagger 4.6 0.4 74 31 19 24.1 98.94     LegendNANA
04:00 Legend Double Dagger 4.5 -0.1 72 30 20 24.1 99.07     Mainly Clear
05:00 Legend Double Dagger 3.2 -0.3 78 28 13 24.1 99.22     LegendNANA
06:00 Legend Double Dagger 3.4 0.3 80 27 17 24.1 99.33     LegendNANA
07:00 Legend Double Dagger 2.8 0.0 82 29 12 24.1 99.45     Mainly Clear
08:00 Legend Double Dagger 4.7 0.5 74 31 17 24.1 99.57     LegendNANA
09:00 Legend Double Dagger 5.2 0.6 72 32 19 24.1 99.68     LegendNANA
10:00 Legend Double Dagger 6.1 -0.6 62 30 15 24.1 99.74     Mostly Cloudy
11:00 Legend Double Dagger 6.7 -1.2 57 34 23 24.1 99.79     LegendNANA
12:00 Legend Double Dagger 7.3 -0.4 58 36 11 24.1 99.75     LegendNANA
13:00 Legend Double Dagger 9.1 -0.5 51 33 9 24.1 99.74     Mostly Cloudy
14:00 Legend Double Dagger 9.6 -1.4 46 27 14 24.1 99.73     LegendNANA
15:00 Legend Double Dagger 9.8 -1.2 46 30 14 24.1 99.76     LegendNANA
16:00 Legend Double Dagger 9.2 -1.2 48 29 17 24.1 99.80     Mainly Clear
17:00 Legend Double Dagger 7.6 -1.6 52 29 19 24.1 99.82     LegendNANA
18:00 Legend Double Dagger 6.1 -1.3 59 29 13 24.1 99.92     LegendNANA
19:00 Legend Double Dagger 5.6 -1.1 62 28 9 24.1 99.94     Clear
20:00 Legend Double Dagger 5.1 -0.9 65 29 10 24.1 99.96     LegendNANA
21:00 Legend Double Dagger 4.0 -1.0 70 5 5 24.1 99.85     LegendNANA
22:00 Legend Double Dagger 4.1 -1.1 69 1 6 24.1 99.97     Clear
23:00 Legend Double Dagger 3.4 -1.0 73 4 5 24.1 99.93     LegendNANA

Notes on Data Quality.

Legend

  • E = Estimated
  • M = Missing
  • NA = Not Available
  • ‡ = Partner data that is not subject to review by the National Climate Archives
Date modified: